Probability
0 0 0 0 0 0 0 0 0 0 0 0 0 0 0 0 0 0 0 0 0 0 0 0 0 0 0 0 0 0 0 0 0 0 0 0 0 0 0 0 0 0 0
0 0 0 0 0 0 0 0 0 0 0 0 0 0 0 0 0 0 0 0 0 0 0 0 0 0 0 0 0 0 0 0 0 0 0 0 0 0 0 0 0 0 0
0 0 0 0 0 0 0 0 0 0 0 0 0 0 0 0 0 0 0 0 0 0 0 0 0 0 0 0 0 0 0 0 0 0 0 0 0 0 0 0 0 0 0
0 0 0 0 0 0 0 0 0 0 0 0 0 0 0 0 0 0 0 0 0 0 0 0 0 0 0 0 0 0 0 0 0 0 0 0 0 0 0 0 0 0 0
0 0 0 0 0 0 0 0 0 0 0 0 0 0 0 0 0 0 0 0 0 0 0 0 0 0 0 0 0 0 0 0 0 0 0 0 0 0 0 0 0 0 0
0 0 0 0 0 0 0 0 0 0 0 0 0 0 0 0 0 0 0 0 0 0 0 0 0 0 0 0 0 0 0 0 0 0 0 0 0 0 0 0 0 0 0
0 0 0 0 0 0 0 0 0 0 0 0 0 0 0 0 0 0 0 0 0 0 0 0 0 0 0 0 0 0 0 0 0 0 0 0 0 0 0 0 0 0 0
0 0 0 0 0 0 0 0 0 0 0 0 0 0 0 0 0 0 0 0 0 0 0 0 0 0 0 0 0 0 0 0 0 0 0 0 0 0 0 0 0 0 0
0 0 0 0 0 0 0 0 0 0 0 0 0 0 0 0 0 0 0 0 0 0 0 0 0 0 0 0 0 0 0 0 0 0 0 0 0 0 0 0 0 0 0
0 0 0 0 0 0 0 0 0 0 0 0 0 0 0 0 0 0 0 0 0 0 0 0 0 0 0 0 0 0 0 0 0 0 0 0 0 0 0 0 0 0 0
0 0 0 0 0 0 0 0 0 0 0 0 0 0 0 0 0 0 0 0 0 0 0 0 0 0 0 0 0 0 0 0 0 0 0 0 0 0 0 0 0 0 0
0 0 0 0 0 0 0 0 0 0 0 0 0 0 0 0 0 0 0 0 0 0 0 0 0 0 0 0 0 0 0 0 0 0 0 0 0 0 0 0 0 0 0
0 0 0 0 0 0 0 0 0 0 0 0 0 0 0 0 0 0 0 0 0 0 0 0 0 0 0 0 0 0 0 0 0 0 0 0 0 0 0 0 0 0 0
0 0 0 0 0 0 0 0 0 0 0 0 0 0 0 0 0 0 0 0 0 0 0 0 0 0 0 0 0 0 0 0 0 0 0 0 0 0 0 0 0 0 0
0 0 0 0 0 0 0 0 0 0 0 0 0 0 0 0 0 0 0 0 0 0 0 0 0 0 0 0 0 0 0 0 0 0 0 0 0 0 0 0 0 0 0
0 0 0 0 0 0 0 0 0 0 0 0 0 0 0 0 0 0 0 0 0 0 0 0 0 0 0 0 0 0 0 0 0 0 0 0 0 0 0 0 0 0 0
0 0 0 0 0 0 0 0 0 0 0 0 0 0 0 0 0 0 0 0 0 0 0 0 0 0 0 0 0 0 0 0 0 0 0 0 0 0 0 0 0 0 0
0 0 0 0 0 0 0 0 0 0 0 0 0 0 0 0 0 0 0 0 0 0 0 0 0 0 0 0 0 0 0 0 0 0 0 0 0 0 0 0 0 0 0
0 0 0 0 0 0 0 0 0 0 0 0 0 0 0 0 0 0 0 0 0 0 0 0 0 0 0 0 0 0 0 0 0 0 0 0 0 0 0 0 0 0 0
0 0 0 0 0 0 0 0 0 0 0 0 0 0 0 0 0 0 0 0 0 0 0 0 0 0 0 0 0 0 0 0 0 0 0 0 0 0 0 0 0 0 0
0 0 0 0 0 0 0 0 0 0 0 0 0 0 0 0 0 0 0 0 0 0 0 0 0 0 0 0 0 0 0 0 0 0 0 0 0 0 0 0 0 0 0
0 0 0 0 0 0 0 0 0 0 0 0 0 0 0 0 0 0 0 0 0 0 0 0 0 0 0 0 0 0 0 0 0 0 0 0 0 0 0 0 0 0 0
0 0 0 0 0 0 0 0 0 0 0 0 0 0 0 0 0 0 0 0 0 0 0 0 0 0 0 0 0 0 0 0 0 0 0 0 0 0 0 0 0 0 0
0 0 0 0 0 0 0 0 0 0 0 0 0 0 0 0 0 0 0 0 0 0 0 0 0 0 0 0 0 0 0 0 0 0 0 0 0 0 0 0 0 0 0
0 0 0 0 0 0 0 0 0 0 0 0 0 0 0 0 0 0 0 0 0 0 0 0 0 0 0 0 0 0 0 0 0 0 0 0 0 0 0 0 0 0 0
0 0 0 0 0 0 0 0 0 0 0 0 0 0 0 0 0 0 0 0 0 0 0 0 0 0 0 0 0 0 0 0 0 0 0 0 0 0 0 0 0 0 0
Height
5669 5671 5673 5676 5678 5680 5682 5684 5685 5687 5688 5689 5690 5690 5691 5692 5693 5694 5695 5696 5697 5698 5699 5701 5702 5704 5705 5706 5707 5708 5708 5709 5710 5711 5710 5709 5708 5708 5707 5707 5706 5706 5705
5659 5661 5664 5666 5668 5670 5672 5673 5674 5675 5676 5677 5678 5679 5680 5681 5681 5682 5683 5684 5685 5687 5687 5689 5690 5692 5693 5694 5695 5695 5696 5696 5697 5698 5698 5697 5697 5696 5695 5694 5694 5693 5692
5648 5651 5653 5655 5657 5659 5661 5662 5663 5664 5664 5665 5666 5667 5668 5669 5669 5670 5671 5672 5673 5674 5675 5676 5678 5679 5680 5681 5682 5682 5683 5683 5683 5684 5684 5684 5683 5682 5681 5681 5680 5679 5678
5637 5639 5642 5644 5645 5647 5648 5649 5650 5651 5652 5653 5654 5655 5656 5656 5657 5658 5658 5659 5660 5661 5662 5663 5665 5666 5667 5668 5668 5668 5669 5669 5669 5669 5670 5670 5669 5668 5667 5666 5666 5665 5664
5625 5628 5630 5632 5633 5635 5636 5637 5638 5638 5639 5640 5641 5642 5642 5643 5644 5644 5644 5645 5647 5648 5649 5650 5651 5651 5652 5653 5654 5654 5654 5654 5654 5654 5654 5654 5654 5653 5652 5651 5651 5650 5649
5614 5616 5618 5620 5621 5622 5623 5624 5624 5625 5626 5627 5628 5628 5629 5629 5630 5630 5630 5631 5632 5633 5634 5635 5636 5637 5637 5638 5638 5639 5639 5639 5639 5638 5638 5638 5638 5638 5637 5636 5635 5634 5635
5601 5603 5605 5607 5608 5609 5610 5611 5611 5612 5612 5613 5614 5614 5615 5615 5616 5616 5616 5617 5618 5618 5619 5620 5621 5621 5622 5622 5622 5623 5623 5622 5622 5622 5622 5622 5622 5622 5621 5620 5619 5618 5618
5588 5590 5591 5593 5595 5596 5597 5597 5598 5598 5598 5598 5599 5599 5600 5600 5601 5601 5601 5602 5602 5603 5604 5604 5605 5605 5605 5605 5606 5606 5606 5606 5606 5605 5606 5606 5605 5604 5603 5603 5602 5601 5601
5574 5576 5578 5579 5580 5582 5583 5583 5583 5583 5584 5584 5584 5584 5584 5585 5585 5586 5586 5586 5587 5588 5588 5588 5588 5589 5589 5589 5589 5590 5590 5590 5589 5589 5589 5589 5588 5588 5586 5585 5585 5584 5585
5561 5562 5563 5565 5566 5567 5568 5569 5569 5569 5569 5569 5569 5569 5569 5570 5570 5570 5571 5571 5572 5572 5572 5572 5572 5572 5572 5571 5571 5572 5573 5573 5573 5573 5573 5572 5572 5571 5570 5568 5568 5567 5567
5547 5548 5550 5550 5551 5552 5553 5554 5553 5554 5554 5554 5554 5554 5554 5554 5554 5554 5555 5555 5555 5556 5556 5556 5556 5556 5556 5555 5555 5556 5556 5556 5556 5556 5556 5556 5556 5555 5554 5553 5552 5551 5551
5534 5535 5536 5536 5537 5537 5538 5538 5539 5539 5539 5539 5539 5539 5538 5539 5539 5539 5539 5539 5540 5540 5541 5541 5540 5540 5540 5540 5540 5540 5540 5539 5539 5540 5540 5540 5540 5539 5538 5538 5537 5536 5535
5520 5521 5522 5522 5523 5523 5524 5524 5524 5524 5524 5525 5524 5525 5524 5524 5524 5524 5524 5524 5524 5524 5524 5525 5525 5524 5524 5524 5524 5524 5523 5523 5523 5524 5524 5524 5524 5523 5522 5522 5521 5520 5520
5507 5508 5508 5509 5510 5510 5510 5510 5510 5510 5510 5510 5510 5510 5510 5510 5510 5509 5509 5509 5509 5508 5508 5509 5509 5508 5508 5508 5508 5508 5508 5508 5508 5508 5508 5508 5508 5507 5507 5506 5505 5505 5504
5495 5496 5496 5496 5497 5497 5497 5497 5497 5497 5496 5496 5496 5496 5496 5496 5496 5495 5494 5494 5494 5493 5493 5493 5493 5493 5493 5493 5493 5493 5493 5493 5493 5492 5492 5493 5492 5492 5491 5491 5490 5489 5489
5483 5484 5484 5484 5484 5484 5484 5484 5484 5484 5483 5483 5482 5482 5482 5482 5481 5480 5479 5479 5478 5478 5477 5478 5478 5478 5478 5479 5479 5479 5478 5478 5478 5477 5477 5477 5477 5477 5476 5476 5475 5475 5474
5471 5471 5471 5471 5471 5471 5471 5471 5471 5471 5470 5469 5469 5468 5468 5467 5467 5466 5465 5464 5464 5463 5463 5463 5463 5464 5464 5464 5464 5464 5464 5464 5463 5463 5463 5462 5462 5462 5461 5461 5461 5460 5460
5459 5459 5459 5459 5459 5459 5458 5458 5458 5457 5457 5457 5456 5455 5454 5454 5453 5452 5451 5451 5450 5450 5449 5450 5450 5450 5450 5450 5450 5449 5449 5449 5449 5449 5448 5448 5448 5448 5447 5447 5447 5446 5446
5448 5448 5447 5447 5447 5446 5446 5446 5445 5445 5444 5444 5444 5443 5442 5441 5440 5439 5438 5437 5437 5437 5437 5437 5437 5437 5436 5436 5436 5435 5435 5435 5435 5434 5434 5434 5434 5434 5434 5434 5433 5433 5432
5436 5436 5435 5435 5435 5434 5434 5434 5433 5433 5432 5432 5431 5431 5429 5428 5427 5426 5425 5425 5425 5425 5425 5424 5424 5423 5423 5422 5422 5421 5421 5421 5421 5421 5421 5421 5421 5420 5420 5420 5420 5420 5420
5425 5425 5424 5423 5423 5423 5422 5422 5421 5421 5420 5420 5419 5418 5417 5416 5415 5414 5414 5413 5412 5412 5412 5411 5411 5410 5410 5409 5409 5408 5408 5408 5408 5408 5408 5408 5407 5407 5407 5407 5407 5407 5407
5413 5413 5413 5412 5411 5411 5410 5410 5409 5409 5408 5408 5407 5406 5405 5404 5403 5403 5402 5401 5400 5400 5399 5399 5398 5398 5397 5396 5396 5396 5395 5395 5395 5394 5394 5394 5394 5394 5394 5395 5395 5395 5395
5402 5401 5401 5401 5400 5399 5399 5398 5398 5397 5397 5396 5395 5394 5393 5392 5391 5391 5390 5389 5388 5388 5387 5387 5386 5386 5385 5384 5384 5383 5383 5383 5382 5382 5382 5382 5382 5382 5383 5383 5384 5384 5384
5390 5390 5390 5389 5389 5388 5388 5387 5386 5386 5385 5384 5383 5383 5382 5381 5380 5379 5378 5377 5376 5376 5375 5375 5374 5374 5373 5372 5372 5372 5372 5371 5371 5371 5371 5371 5371 5371 5372 5373 5373 5374 5374
5379 5379 5379 5378 5378 5377 5377 5376 5376 5375 5374 5373 5372 5371 5370 5369 5368 5368 5367 5366 5365 5364 5364 5363 5362 5362 5362 5361 5361 5361 5360 5360 5360 5360 5360 5361 5361 5361 5362 5363 5363 5364 5364
5368 5368 5368 5367 5367 5366 5366 5365 5365 5364 5363 5362 5361 5360 5359 5358 5358 5357 5356 5355 5354 5353 5353 5352 5352 5351 5351 5351 5350 5350 5350 5350 5350 5350 5350 5351 5352 5352 5353 5354 5354 5355 5356
Wind_Speed
38 38 38 38 38 39 38 39 41 41 42 43 43 43 43 44 44 44 44 45 44 45 45 46 47 47 46 46 46 46 47 47 47 48 47 47 46 46 47 47 47 47 46
39 40 39 39 39 39 39 39 40 41 42 43 43 43 44 45 45 46 46 46 46 46 47 47 47 48 48 48 48 49 49 50 50 50 49 49 49 49 49 49 49 49 49
41 41 41 41 41 40 41 41 42 44 45 45 45 45 45 45 45 46 47 48 48 48 47 47 48 50 50 50 50 51 51 51 51 52 52 52 51 51 51 51 51 52 51
43 42 41 41 41 42 42 42 43 45 46 46 46 47 47 47 47 48 48 49 49 49 49 49 50 51 52 52 53 53 52 52 52 54 54 54 54 53 54 53 53 53 52
44 43 43 42 42 43 43 43 44 45 46 47 47 47 48 48 49 49 49 50 50 51 51 51 51 52 53 54 54 53 53 53 54 55 55 56 56 56 55 54 54 54 54
44 44 44 44 44 44 44 45 45 46 47 48 48 49 49 49 49 50 50 51 52 52 52 52 52 53 54 55 55 55 54 54 55 55 55 55 55 56 56 55 55 55 55
45 46 46 46 46 46 46 46 46 47 48 49 50 51 51 51 51 51 51 52 52 52 53 53 53 54 55 56 56 56 56 55 55 56 56 56 57 56 57 57 56 56 55
47 47 47 48 48 49 49 49 49 49 50 50 51 52 52 52 52 52 51 52 53 53 54 55 55 55 55 56 57 57 57 56 56 57 57 57 57 57 57 57 56 56 56
47 48 48 48 49 50 51 51 51 51 51 51 52 52 53 53 53 53 53 53 53 54 54 55 55 55 55 56 57 57 57 56 56 56 56 57 57 57 57 57 57 57 56
47 48 49 49 50 50 51 51 51 52 52 51 52 53 53 53 53 53 52 53 53 53 54 54 54 55 55 56 56 57 57 56 56 56 56 56 57 57 57 57 58 57 57
48 49 49 50 50 50 50 50 50 51 51 51 51 52 52 53 53 53 53 53 53 53 53 53 53 54 54 55 55 56 56 56 56 56 56 56 55 55 55 56 56 56 56
47 48 48 49 48 48 48 49 49 49 49 50 50 50 51 51 52 52 52 52 52 52 52 51 52 52 53 53 54 54 53 54 55 55 55 54 53 53 53 54 54 55 55
45 46 46 47 47 47 47 48 48 48 48 49 49 49 49 50 50 50 51 51 51 51 51 51 51 51 51 51 51 52 52 53 54 54 53 53 53 53 53 53 53 53 53
43 44 44 45 46 46 46 46 47 47 47 47 48 48 48 49 49 49 49 50 51 51 51 50 50 50 50 50 50 51 51 51 52 53 53 52 52 52 52 52 52 52 52
42 43 44 44 45 45 45 45 46 46 46 46 46 47 47 47 47 48 49 49 50 50 50 50 50 49 48 49 49 50 50 50 51 51 51 51 51 51 50 50 50 51 51
42 42 43 43 44 44 44 44 45 45 45 45 46 46 46 46 47 48 48 48 48 48 48 48 47 47 48 48 48 49 49 50 50 50 50 50 49 48 48 49 49 49 49
39 40 40 40 41 42 43 44 44 44 45 45 45 46 46 45 45 45 46 46 46 46 45 45 45 46 47 47 48 48 48 48 49 48 48 47 48 47 47 47 47 47 47
39 39 39 39 40 41 42 43 43 43 43 43 43 44 44 44 43 44 44 44 44 44 45 44 44 45 45 46 47 47 47 47 47 46 46 45 45 45 45 45 45 45 45
39 39 39 40 40 40 41 41 42 42 42 42 42 42 42 43 43 43 42 42 42 42 43 43 43 44 45 45 46 46 46 45 44 44 44 44 44 44 44 44 44 44 44
38 38 39 39 40 40 40 40 40 40 40 40 40 40 41 41 41 41 41 41 41 41 42 42 42 43 44 44 44 45 45 44 43 43 42 43 43 43 44 44 43 43 43
38 38 39 39 39 39 39 39 39 39 39 39 39 39 39 39 39 38 39 39 40 40 41 41 41 42 41 41 42 42 42 42 43 42 42 42 42 42 42 42 42 41 41
37 38 38 38 38 38 38 38 38 38 38 38 37 37 38 38 38 38 39 40 40 40 39 39 39 39 39 39 39 39 39 39 39 40 40 40 40 40 40 40 39 38 38
37 37 37 37 36 36 37 37 37 37 38 38 38 37 38 38 38 38 38 38 38 38 38 37 37 37 37 37 37 37 36 36 37 37 38 38 38 38 38 38 37 36 36
36 36 36 36 36 36 36 36 36 37 37 37 37 37 37 37 37 37 36 36 36 36 36 36 36 35 35 35 35 35 35 35 34 34 35 35 35 35 35 35 35 34 33
34 35 35 35 35 34 34 35 35 36 36 36 36 35 35 35 35 35 35 35 35 34 34 34 34 34 33 33 33 33 33 33 33 33 32 32 31 31 31 31 31 30 29
32 32 32 33 33 33 34 34 34 34 34 34 33 33 33 33 33 33 32 32 32 31 31 31 31 31 31 31 31 31 31 31 31 31 30 29 28 28 28 27 27 27 26
Wind_Direction
247 248 250 251 251 251 252 254 254 254 256 256 258 259 260 260 260 260 261 262 262 261 261 261 261 260 261 261 263 265 267 268 268 269 269 271 271 272 273 274 276 276 277
247 248 250 252 253 254 254 256 256 256 257 258 259 260 260 260 260 260 260 261 261 262 262 261 261 260 260 262 263 265 267 268 269 269 269 271 272 272 273 274 275 275 276
249 250 251 253 255 255 257 259 259 258 258 258 259 259 260 260 261 261 260 261 261 263 263 262 262 260 262 263 265 266 267 269 270 270 270 270 271 272 272 273 274 275 276
250 251 253 254 255 258 260 261 261 260 259 259 260 261 262 262 263 263 262 262 263 265 265 264 263 263 264 266 267 268 268 270 271 271 271 270 271 272 272 272 273 274 275
251 252 253 254 257 259 261 263 263 263 262 261 262 263 265 265 265 265 265 264 264 264 264 265 265 264 265 267 267 268 269 269 270 271 271 271 270 271 271 272 272 273 274
251 253 254 255 257 259 261 262 263 264 264 263 263 265 266 266 267 266 265 265 265 265 266 266 266 266 267 268 268 269 270 270 270 271 271 271 271 271 271 271 272 272 274
253 254 255 256 257 258 260 261 262 264 264 264 264 265 265 265 265 266 266 266 266 267 268 267 268 268 269 269 270 270 271 271 271 270 271 272 271 271 272 272 272 273 274
254 255 256 257 258 259 260 261 263 264 265 264 265 265 265 265 265 266 266 267 268 268 268 268 269 269 270 270 270 271 271 271 271 271 271 272 272 272 272 273 273 274 274
256 257 257 258 260 261 261 262 264 265 266 266 265 265 265 266 266 267 267 268 269 270 270 270 270 270 271 271 271 271 271 271 270 271 271 271 272 272 272 273 273 273 273
257 258 259 260 262 262 263 263 265 266 266 266 266 267 267 267 268 268 268 269 271 271 271 271 271 270 270 270 271 271 271 270 270 270 271 271 272 272 273 273 273 274 273
258 259 260 260 262 263 263 264 266 266 267 267 267 267 268 268 268 269 270 271 272 273 273 271 270 270 270 270 270 270 270 270 270 271 271 272 272 273 273 273 273 274 274
259 260 261 262 263 264 265 266 267 268 268 269 269 269 269 269 269 269 270 271 272 272 272 271 270 270 270 270 270 270 270 270 270 271 271 272 273 273 274 274 274 274 274
262 263 263 263 264 265 266 267 268 268 269 269 270 270 271 271 270 270 271 271 272 272 272 271 270 270 270 269 269 269 269 270 270 271 272 272 272 273 274 274 274 273 274
264 264 264 264 264 265 266 268 268 269 270 270 271 271 271 271 271 270 270 271 271 271 271 271 270 270 269 269 268 269 270 270 272 272 272 272 272 273 274 274 273 273 274
264 263 264 265 265 266 267 267 268 269 271 271 271 272 272 271 270 270 271 271 271 271 270 270 270 269 268 268 268 269 270 271 271 272 273 273 273 273 273 274 274 274 274
265 265 265 265 265 265 266 267 268 269 270 271 272 272 272 271 270 271 271 271 271 270 270 269 268 267 267 268 269 270 270 271 272 272 273 273 272 273 273 273 273 273 274
265 265 265 265 266 266 267 268 269 270 270 271 271 272 272 272 272 272 271 271 270 269 269 268 268 268 268 269 270 270 271 271 271 272 272 272 272 271 271 272 273 273 273
265 266 266 267 267 268 268 269 270 270 271 270 271 271 272 272 272 272 271 270 269 269 269 268 268 269 269 270 270 271 271 271 271 272 271 271 271 270 270 271 272 272 273
265 267 267 267 268 269 269 270 270 271 271 271 271 272 272 272 272 272 271 270 270 269 269 269 270 270 271 271 271 271 271 271 271 271 270 269 269 269 270 271 271 272 272
266 267 268 269 269 270 270 271 271 271 271 272 273 273 273 273 273 273 272 272 271 271 270 271 272 273 273 273 272 271 271 271 270 270 270 269 269 270 270 270 270 270 270
266 268 269 270 270 271 271 271 271 271 272 272 274 274 274 274 274 274 274 274 273 273 273 273 274 274 274 274 273 273 272 271 270 269 269 270 269 269 270 270 270 269 268
267 268 268 269 270 271 271 272 272 272 272 273 274 274 274 274 275 275 275 274 274 274 274 274 274 274 274 274 274 274 273 271 270 269 269 269 269 269 269 269 269 269 269
266 267 268 269 269 269 270 271 272 273 273 274 274 274 274 275 275 276 275 275 274 273 273 273 273 273 273 273 273 273 272 271 270 269 268 269 268 268 268 268 268 268 268
266 267 268 268 268 268 269 271 272 273 274 274 274 274 275 275 275 275 275 275 273 272 272 271 272 272 273 273 271 271 270 270 269 269 269 269 268 267 267 267 268 268 268
267 268 268 269 269 269 270 271 273 273 273 273 273 274 274 275 274 273 273 274 273 272 271 270 270 270 271 270 270 270 269 269 269 269 268 268 267 266 266 267 267 266 265
268 268 268 269 269 269 270 272 273 273 272 272 273 273 273 273 272 272 273 272 272 271 271 271 270 270 269 270 270 269 269 268 268 267 266 265 264 265 265 265 265 264 263